User: anonymous   Login
Location: Miami, Florida
(25.6830°N, 80.1700°W)
Time: 07:24:13
(UTC-04:00)
Language:

Envisat - Orbit

View from above orbital plane
View from above orbital plane
View from above satellite
View from above satellite

Ground track
Ground track

The orbit data is extracted from the following two-line orbital elements,

1 27386U 02009A   18052.15623195  .00000002  00000-0  14347-4 0  9990
2 27386  98.1996  91.5959 0001305  86.9828 273.1520 14.37915835836854
Epoch (UTC): 21 February 2018 03:44:58
Eccentricity: 0.0001305
inclination: 98.1996°
perigee height: 764 km
apogee height: 766 km
right ascension of ascending node: 91.5959°
argument of perigee: 86.9828°
revolutions per day: 14.37915835
mean anomaly at epoch: 273.1520°
orbit number at epoch: 83685

The dashed part of the orbit path shows where the satellite is in the earth's shadow,  

DLR